Location: Pagani
(40.7500°N, 14.6167°E)
Time: 10:50:34
(UTC+00:00)

Gbstr 26 Del rocket - Pass Details

Date: 15 May 2026
Orbit: 490 x 1215 km, 51.8° (Epoch: 6 June)

Event Time Altitude Azimuth Distance (km) Brightness Sun altitude
Rises 18:40:52 0° 306° (NW) 3,410 9.6 -5.6°
Reaches altitude 10° 18:43:37 10° 307° (NW) 2,347 7.9 -6.1°
Maximum altitude 18:48:59 88° 32° (NNE) 676 3.3 -7.0°
Drops below altitude 10° 18:53:21 10° 127° (SE) 1,916 4.9 -7.6°
Enters shadow 18:53:26 10° 127° (SE) 1,945 4.9 -7.7°
